Tracking 18840 objects as of 18-November-2017
HD Live streaming from Space Station
objects crossing your sky now

FENGYUN 1C DEB

Track FENGYUN 1C DEB now!
10-day predictions


NORAD ID: 30177
Int'l Code: 1999-025UJ
Perigee: 705.5 km
Apogee: 1,414.0 km
Inclination: 98.6 °
Period: 106.2 minutes
Semi major axis: 7430 km
RCS: 0.0564 m2 (small)
Launch date: May 10, 1999
Source: People's Republic of China (PRC)
Launch site: Taiyaun Space Center, China (TSC)

Note: This is SATELLITE DEBRIS
aabbcc
Your satellite tracking list
Your tracking list is empty




NASA's NSSDC Master Catalog

Two Line Element Set (TLE):
1 30177U 99025UJ  17321.69077987 -.00000019 +00000-0 +15298-4 0  9990
2 30177 098.6349 218.5765 0476748 276.6374 133.7519 13.55360130534833
Source of the keplerian elements: AFSPC